This is the latest recevied weather packets stored in our database for station/object G0TQM-11. If no packets are shown the sender has not sent any weather packets the latest 10 day(s).
| Time | Temp. | Humidity | Pressure | Rain* | Wind** | Luminosity | Snow |
|---|---|---|---|---|---|---|---|
| 1777515891 | 6.67° C | 43% | 1022.5 hPa | - | - | - | - |
| 1777514690 | 6.67° C | 43% | 1022.7 hPa | - | - | - | - |
| 1777513490 | 6.67° C | 42% | 1022.8 hPa | - | - | - | - |
| 1777512290 | 7.22° C | 42% | 1022.9 hPa | - | - | - | - |
| 1777511090 | 7.78° C | 42% | 1022.8 hPa | - | - | - | - |
| 1777509890 | 7.78° C | 42% | 1022.8 hPa | - | - | - | - |
| 1777508690 | 8.33° C | 41% | 1023 hPa | - | - | - | - |
| 1777507490 | 8.89° C | 41% | 1023 hPa | - | - | - | - |
| 1777506290 | 9.44° C | 41% | 1023.1 hPa | - | - | - | - |
| 1777505089 | 10° C | 40% | 1023.3 hPa | - | - | - | - |
| 1777503889 | 10.56° C | 39% | 1023.3 hPa | - | - | - | - |
| 1777502689 | 11.11° C | 39% | 1023.3 hPa | - | - | - | - |
| 1777501489 | 11.67° C | 39% | 1023.3 hPa | - | - | - | - |
| 1777500289 | 12.22° C | 38% | 1023.4 hPa | - | - | - | - |
| 1777499089 | 13.33° C | 37% | 1023.3 hPa | - | - | - | - |
| 1777497889 | 15° C | 35% | 1023.4 hPa | - | - | - | - |
| 1777496688 | 15.56° C | 34% | 1023.2 hPa | - | - | - | - |
| 1777495489 | 16.67° C | 33% | 1022.8 hPa | - | - | - | - |
| 1777494288 | 18.33° C | 33% | 1022.5 hPa | - | - | - | - |
| 1777493088 | 20° C | 31% | 1022.5 hPa | - | - | - | - |
| 1777491888 | 21.67° C | 30% | 1022.3 hPa | - | - | - | - |
| 1777490688 | 24.44° C | 28% | 1022.2 hPa | - | - | - | - |
| 1777489488 | 26.11° C | 27% | 1022 hPa | - | - | - | - |
| 1777488287 | 27.22° C | 27% | 1022.1 hPa | - | - | - | - |
| 1777487087 | 27.22° C | 27% | 1021.9 hPa | - | - | - | - |
* Rain since midnight (hover to see other rain measurements)
** Current wind speed in m/s (hover to see current wind gust speed)